Find Starlink 30291

NORAD ID: 57856 Int'l Des: 2023-141 Owner: SPXS Country: US Constellation: starlink operational
LEOCIRCULAR

Current View

Loading 3D Globe...

About Starlink 30291

Starlink 30291 (NORAD 57856) is a starlink constellation satellite (v2 mini) launched Sep 12, 2023 by SPXS of US. It operates in LEO, CIRCULAR orbit with a mass of 730.00 kg.

About Starlink 30291

Description loading...

Upcoming Passes

Passes for default location (London). Set your location on the main map for personalized predictions.

Altitude History

Loading altitude history...

Two-Line Element Set

1 57856U 23141S 26170.23738321 .00000402 00000-0 24733-4 0 9996
2 57856 53.1587 171.8618 0001098 100.9892 259.1233 15.31698017155884
Epoch: Jun 19, 2026 • Age: 23 hours

Current Status

Altitude 470.9 km
Velocity 7.63 km/s
Sub-Earth Point 22.30°N, 2.92°W
Launch Date Sep 12, 2023
Age 2.7 years
Type internet

Technical Details

Classification Payload
Mass 730.00 kg
Dry Mass 700.00 kg
Total Mass 730.00 kg
Length 0.30 m
Diameter 4.10 m
Span 29.00 m
Shape Box + pan
Manufacturer SPXS
Bus Type Starlink V2M
Phase Status In Orbit
Owner/State SPXS/US

Most Searched